Regional Weather Roundup
Issued by NWS

Home | Current Version | Previous Version | Graphics & Text | Print | Product List | Glossary On
Versions: 1 2 3 4 5 6 7 8 9 10 11 12 13 14 15 16 17 18 19 20 21 22 23 24 25 26 27 28 29 30 31 32 33 34 35 36 37
000
ASUS45 KBOU 212307
RWRCO

WEATHER ROUNDUP FOR COLORADO
NATIONAL WEATHER SERVICE DENVER/BOULDER CO
500 PM MDT TUE OCT 21 2014

NOTE: "FAIR" INDICATES FEW OR NO CLOUDS BELOW 12000 FEET WITH NO
SIGNIFICANT WEATHER AND/OR OBSTRUCTIONS TO VISIBILITY.

COZ001>005-013-030-031-220000-
...NORTHWEST COLORADO...

CITY           SKY/WX    TMP DP  RH WIND       PRES   REMARKS
CRAIG          CLOUDY    65  37  35 SW16      29.99S
HAYDEN         CLOUDY    63  36  36 SW12      30.00F
MEEKER         CLOUDY    63  40  42 S12       30.00S
MOUNT WERNER   NOT AVBL
STEAMBOAT SPGS CLOUDY    59  36  42 W6        30.02S
WALDEN         CLOUDY    50  37  62 E7        30.08F
$$

COZ006>008-011-220000-
...WEST CENTRAL VALLEYS...

CITY           SKY/WX    TMP DP  RH WIND       PRES   REMARKS
GRAND JUNCTION CLOUDY    64  45  49 CALM      29.97R
MONTROSE       CLOUDY    61  45  55 SE9       30.04F
EAGLE          CLOUDY    61  39  44 W7        30.06F
RIFLE          CLOUDY    64  43  46 CALM      29.98F
DELTA          CLOUDY    68  43  39 S6        30.00S
NUCLA          CLOUDY    66  37  34 SW3       30.05F
$$

COZ017>023-064>068-220000-
...SOUTHWEST COLORADO...

CITY           SKY/WX    TMP DP  RH WIND       PRES   REMARKS
DURANGO        CLOUDY    54  45  71 E5        30.10F
CORTEZ         SUNNY     67  39  35 SW13      30.05S
PAGOSA SPRINGS PTSUNNY   57  38  49 W3        30.15F
TELLURIDE      CLOUDY    52  38  60 CALM      30.20S
WOLF CREEK PAS PTSUNNY   36  32  87 S10G16      N/A
$$

COZ009-010-012-014-032>034-037-058>063-220000-
...CENTRAL COLORADO...

CITY           SKY/WX    TMP DP  RH WIND       PRES   REMARKS
ASPEN          LGT RAIN  49  43  80 S10       30.13R
BUENA VISTA    PTSUNNY   57  35  42 SE10      30.09F
COPPER MTN     PTSUNNY   41  32  70 W15       30.30S
BERTHOUD PASS  FOG       32  28  86 N6        30.33F VSB 1/2 WCI  26
COTTONWOOD PAS PTSUNNY   52  34  50 CALM      30.19S
GUNNISON       PTSUNNY   55  34  44 W8        30.14R
KREMMLING      CLOUDY    55  37  50 SE5         N/A
LEADVILLE      CLOUDY    48  31  51 S10       30.18R
MONARCH PASS   CLOUDY    37  34  87 SW16      30.41S
SALIDA         PTSUNNY   60  41  49 CALM      30.14F
SUNLIGHT       CLOUDY    46  37  71 CALM      30.25F
WILKERSON PASS NOT AVBL
$$

COZ069>075-220000-
...SAN LUIS VALLEY/SANGRE DE CRISTO MOUNTAINS...

CITY           SKY/WX    TMP DP  RH WIND       PRES   REMARKS
ALAMOSA        PTSUNNY   59  37  44 SE9       30.10F
LA VETA PASS   CLOUDY    46  32  57 S6        30.23F
SAGUACHE       PTSUNNY   59  36  41 S6        30.11F
$$

COZ035-036-038>040-220000-
...NORTHERN COLORADO FRONT RANGE...

CITY           SKY/WX    TMP DP  RH WIND       PRES   REMARKS
DENVER INTL AP PTSUNNY   71  38  29 S23G31    29.90F
DMNS CITY PARK   N/A     73  34  23 E6        29.90F
AURORA         PTSUNNY   66  41  39 E7        29.93S
FRONT RANGE AP NOT AVBL
ERIE MUNI ARPT PTSUNNY   71  39  31 NW6       29.89F
BOULDER MUN AP PTSUNNY   72  36  26 W3        29.90F
CENTENNIAL     PTSUNNY   68  40  35 NE6       29.94F
BROOMFIELD     PTSUNNY   70  39  32 NW8       29.92F
FORT COLLINS   PTSUNNY   73  39  29 N8        29.90R
LONGMONT       CLOUDY    74  39  27 CALM      29.91S
$$

COZ041-046-047-076>085-087-088-220000-
...PIKES PEAK/PALMER DIVIDE AND SOUTHERN FOOTHILLS...

CITY           SKY/WX    TMP DP  RH WIND       PRES   REMARKS
COLO. SPRINGS  PTSUNNY   65  33  30 S8        30.00F
A. F. ACADEMY  SUNNY     66  34  30 SE9       30.00F
ELLICOTT       MOSUNNY   69  33  26 S14       29.98F
FALCON         MOSUNNY   65  31  28 S8        30.04F
FORT CARSON    MOSUNNY   69  35  29 SW5       29.96F
LIMON          MOSUNNY   69  39  33 S15       29.95F
MONUMENT HILL  MOSUNNY   63  32  31 S14       30.01F
TRINIDAD       MOSUNNY   69  42  37 S24       29.99S
$$

COZ042>045-048>051-090-091-220000-
...NORTHEAST COLORADO...

CITY           SKY/WX    TMP DP  RH WIND       PRES   REMARKS
GREELEY ARPT   MOSUNNY   75  36  23 E3        29.88F
AKRON          SUNNY     74  38  27 S18G26    29.90F
BURLINGTON     SUNNY     75  40  28 S18G25    29.94F
WRAY           SUNNY     80  38  22 S16G23    29.89S
STERLING       SUNNY     81  43  26 S12       29.84S
HOLYOKE        CLEAR     79  39  24 S14G24    29.87F
FORT MORGAN    SUNNY     78  35  21 S14       29.87S
$$

COZ086-089-092>099-220000-
...SOUTHEAST COLORADO...

CITY           SKY/WX    TMP DP  RH WIND       PRES   REMARKS
PUEBLO         PTSUNNY   76  35  22 E8        29.88F
LA JUNTA       MOSUNNY   76  42  29 SW16      29.91F
LAMAR          SUNNY     78  44  29 S21G26    29.90F
SPRINGFIELD      N/A     71  44  37 S20G30    30.00S
$$



USA.gov is the U.S. government's official web portal to all federal, state and local government web resources and services.